Weather reports worldwide

Advertisment
Shawbury, United Kingdom (3414): temperature & dewpoint: 03.04.2020 11:00:00 - 09.04.2020 11:00:00 (BST)Shawbury, United Kingdom (3414): temperature -20cm & temperature -100cm: 03.04.2020 11:00:00 - 09.04.2020 11:00:00 (BST)Shawbury, United Kingdom (3414): wind speed & gusts: 03.04.2020 11:00:00 - 09.04.2020 11:00:00 (BST)Shawbury, United Kingdom (3414): wind direction: 03.04.2020 11:00:00 - 09.04.2020 11:00:00 (BST)Shawbury, United Kingdom (3414): reduced air pressure: 03.04.2020 11:00:00 - 09.04.2020 11:00:00 (BST)Shawbury, United Kingdom (3414): visibility: 03.04.2020 11:00:00 - 09.04.2020 11:00:00 (BST)Shawbury, United Kingdom (3414): sunshine duration: 03.04.2020 11:00:00 - 09.04.2020 11:00:00 (BST)Shawbury, United Kingdom (3414): precipitation: 03.04.2020 11:00:00 - 09.04.2020 11:00:00 (BST)
Date & Time tt [°C] td [°C] tt -20cm [°C] tt -100cm [°C] ff [km/h] ff [kn] fx [km/h] fx [kn] dd ppp [hPa] vv [km] sd [min] rr [mm]
09.04.2020 11:00:00 15,0 8,0 - - 16 9 - - E - 10 - -
09.04.2020 10:00:00 12,4 7,5 9,4 8,2 13 7 - - E 1026,2 10 60 0,0
09.04.2020 09:00:00 9,5 6,2 - - 0 0 - - N 1026,1 12 30 0,0
09.04.2020 08:00:00 6,7 5,6 - - 2 1 - - W 1025,8 10 6 0,0
09.04.2020 07:00:00 5,2 3,4 - - 0 0 - - N 1025,5 16 0 0,0
09.04.2020 06:00:00 4,9 3,1 - - 4 2 - - N 1025,3 10 0 0,0
09.04.2020 05:00:00 6,1 3,5 - - 5 3 - - WSW 1025,0 18 0 0,0
09.04.2020 04:00:00 5,3 3,0 - - 4 2 - - WSW 1025,1 17 0 0,0
09.04.2020 03:00:00 8,0 4,3 - - 5 3 - - NNW 1025,3 10 0 0,0
09.04.2020 02:00:00 7,1 3,7 - - 8 4 - - NNW 1025,2 22 0 0,0
09.04.2020 01:00:00 8,3 4,1 - - 5 3 - - NNW 1025,2 22 - 0,0
09.04.2020 00:00:00 9,2 5,0 - - 5 3 - - NNW 1025,3 10 0 0,0
08.04.2020 23:00:00 10,4 6,1 - - 5 3 - - NW 1025,2 22 0 0,0
08.04.2020 22:00:00 11,5 6,9 - - 15 8 - - NNW 1024,6 23 0 0,0
08.04.2020 21:00:00 13,0 7,5 - - 15 8 - - NNW 1024,4 24 0 0,0
08.04.2020 20:00:00 13,9 7,3 - - 21 11 - - NNW 1023,9 26 6 0,0
08.04.2020 19:00:00 18,5 6,5 - - 2 1 - - W 1023,1 23 60 0,0
08.04.2020 18:00:00 19,6 8,1 - - 4 2 - - NNW 1023,0 10 60 0,0
08.04.2020 17:00:00 19,8 7,6 - - 5 3 - - WNW 1023,1 25 60 0,0
08.04.2020 16:00:00 19,4 7,4 - - 8 4 - - S 1023,5 10 60 0,0
08.04.2020 15:00:00 18,4 7,2 - - 4 2 - - SW 1024,2 10 60 0,0
08.04.2020 14:00:00 18,7 7,0 - - 5 3 - - SSW 1024,4 10 48 0,0
08.04.2020 13:00:00 17,0 5,8 - - 9 5 - - S 1025,1 10 6 0,0
08.04.2020 12:00:00 17,3 5,8 - - 5 3 - - SE 1025,4 10 60 0,0
08.04.2020 11:00:00 15,5 5,7 - - 2 1 - - SW 1025,8 10 60 0,0
08.04.2020 10:00:00 14,6 7,1 8,7 8,2 2 1 - - ENE 1025,8 10 60 0,0
08.04.2020 09:00:00 11,2 6,7 - - 2 1 - - WSW 1026,0 16 60 0,0
08.04.2020 08:00:00 10,2 6,5 - - 4 2 - - E 1025,9 15 30 0,0
08.04.2020 07:00:00 8,6 6,0 - - 4 2 - - ENE 1025,9 17 0 0,0
08.04.2020 06:00:00 7,2 5,4 - - 4 2 - - W 1025,9 13 0 0,0
08.04.2020 05:00:00 7,8 5,6 - - 5 3 - - SW 1026,1 10 0 0,0
08.04.2020 04:00:00 9,3 5,7 - - 4 2 - - SSE 1026,3 20 0 0,0
08.04.2020 03:00:00 8,8 5,9 - - 2 1 - - NNW 1026,4 23 0 0,0
08.04.2020 02:00:00 8,5 5,5 - - 2 1 - - WSW 1026,8 14 0 0,0
08.04.2020 01:00:00 6,8 4,0 - - 2 1 - - N 1027,2 24 - 0,0
08.04.2020 00:00:00 7,6 4,5 - - 2 1 - - NE 1027,1 25 0 0,0
07.04.2020 23:00:00 8,1 4,7 - - 4 2 - - SSW 1027,1 29 0 0,0
07.04.2020 22:00:00 8,6 3,9 - - 2 1 - - NNW 1027,0 30 0 0,0
07.04.2020 21:00:00 10,4 3,3 - - 0 0 - - N 1027,0 30 0 0,0
07.04.2020 20:00:00 14,5 3,6 - - 9 5 - - SSE 1026,5 30 12 0,0
07.04.2020 19:00:00 15,3 3,5 - - 11 6 - - S 1026,6 30 54 0,0
07.04.2020 18:00:00 15,8 3,0 - - 16 9 - - SSW 1026,8 30 60 0,0
07.04.2020 17:00:00 16,5 3,5 - - 16 9 - - S 1026,9 10 60 0,0
07.04.2020 16:00:00 15,7 4,0 - - 16 9 - - S 1027,5 10 60 0,0
07.04.2020 15:00:00 15,2 4,3 - - 24 13 - - S 1028,2 10 60 0,0
07.04.2020 14:00:00 15,3 5,0 - - 22 12 - - S 1028,6 10 60 0,0
07.04.2020 13:00:00 14,2 4,3 - - 15 8 - - S 1028,8 10 60 0,0
07.04.2020 12:00:00 13,1 3,1 - - 16 9 - - SSE 1029,6 10 60 0,0
07.04.2020 11:00:00 11,4 4,3 - - 11 6 - - ESE 1030,1 10 60 0,0
07.04.2020 10:00:00 8,9 3,9 8,2 8,0 4 2 - - S 1030,4 10 60 0,0
07.04.2020 09:00:00 6,2 3,3 - - 4 2 - - E 1030,5 21 60 0,0
07.04.2020 08:00:00 1,0 0,3 - - 0 0 - - N 1030,4 10 42 0,0
07.04.2020 07:00:00 -0,6 -1,4 - - 2 1 - - W 1029,8 22 0 0,0
07.04.2020 06:00:00 -0,4 -1,4 - - 0 0 - - N 1029,7 21 0 0,0
07.04.2020 05:00:00 0,0 -1,4 - - 0 0 - - N 1029,2 25 0 0,0
07.04.2020 04:00:00 2,3 1,1 - - 2 1 - - ESE 1028,9 25 0 0,0
07.04.2020 03:00:00 2,5 0,9 - - 5 3 - - SE 1028,5 25 0 0,0
07.04.2020 02:00:00 4,2 1,0 - - 2 1 - - SSE 1028,2 25 0 0,0
07.04.2020 01:00:00 4,4 2,0 - - 9 5 - - SW 1027,7 10 - 0,0
07.04.2020 00:00:00 4,6 2,1 - - 16 9 - - SW 1026,6 28 0 0,0
06.04.2020 23:00:00 3,7 0,6 - - 9 5 - - W 1026,3 14 0 0,0
06.04.2020 22:00:00 8,3 1,9 - - 8 4 - - SSW 1025,4 29 0 0,0
06.04.2020 21:00:00 8,5 1,4 - - 9 5 - - W 1024,6 30 0 0,0
06.04.2020 20:00:00 9,0 0,9 - - 13 7 - - WSW 1023,4 30 36 0,0
06.04.2020 19:00:00 11,3 1,1 - - 21 11 - - WSW 1022,3 30 60 0,0
06.04.2020 18:00:00 12,4 0,6 - - 28 15 - - WSW 1021,3 40 60 0,0
06.04.2020 17:00:00 13,1 1,8 - - 24 13 - - W 1020,1 10 60 0,0
06.04.2020 16:00:00 13,5 1,9 - - 31 17 - - WSW 1019,1 10 60 0,0
06.04.2020 15:00:00 13,7 4,0 - - 29 16 46 25 WSW 1018,3 10 54 0,0
06.04.2020 14:00:00 13,3 4,2 - - 31 17 - - WSW 1017,1 10 42 0,0
06.04.2020 13:00:00 13,0 4,9 - - 29 16 - - WSW 1016,2 10 36 0,0
06.04.2020 12:00:00 13,2 6,2 - - 24 13 - - WSW 1015,1 10 24 0,0
06.04.2020 11:00:00 12,0 6,4 - - 22 12 - - SW 1014,3 10 42 0,2
06.04.2020 10:00:00 11,2 6,6 8,7 7,7 21 11 - - SW 1013,2 10 30 0,0
06.04.2020 09:00:00 11,0 6,7 - - 16 9 - - SSW 1012,4 21 42 0,0
06.04.2020 08:00:00 9,4 5,8 - - 9 5 - - S 1011,1 24 18 0,0
06.04.2020 07:00:00 9,1 6,1 - - 9 5 - - WSW 1009,6 26 0 0,0
06.04.2020 06:00:00 10,3 7,0 - - 16 9 - - SW 1008,3 30 0 0,0
06.04.2020 05:00:00 10,5 7,5 - - 22 12 - - SW 1006,9 35 0 0,0
06.04.2020 04:00:00 10,9 8,3 - - 35 19 55 30 WSW 1006,3 45 0 1,2
06.04.2020 03:00:00 12,5 10,6 - - 28 15 46 25 S 1005,1 28 0 0,0
06.04.2020 02:00:00 12,5 10,1 - - 29 16 - - S 1005,2 21 0 0,0
06.04.2020 01:00:00 13,2 9,2 - - 31 17 54 29 SSE 1005,3 10 - 0,0
06.04.2020 00:00:00 14,6 7,3 - - 22 12 - - SSE 1004,9 30 0 0,0
05.04.2020 23:00:00 14,9 6,8 - - 26 14 - - SSE 1005,1 10 0 0,0
05.04.2020 22:00:00 15,3 6,5 - - 31 17 46 25 SSE 1005,2 30 0 0,0
05.04.2020 21:00:00 15,3 6,4 - - 26 14 48 26 SSE 1005,4 30 0 0,0
05.04.2020 20:00:00 16,2 6,2 - - 35 19 61 33 S 1005,8 30 6 0,0
05.04.2020 19:00:00 18,1 5,7 - - 41 22 63 34 SSE 1005,3 30 12 0,0
05.04.2020 18:00:00 19,2 5,4 - - 39 21 57 31 SSE 1005,4 10 36 0,0
05.04.2020 17:00:00 20,2 6,9 - - 31 17 57 31 SSE 1005,5 30 60 0,0
05.04.2020 16:00:00 19,6 5,9 - - 35 19 57 31 SSE 1006,3 26 42 0,0
05.04.2020 15:00:00 18,9 4,8 - - 39 21 57 31 SSE 1007,3 29 54 0,0
05.04.2020 14:00:00 18,0 4,5 - - 35 19 50 27 SSE 1008,1 25 24 0,0
05.04.2020 13:00:00 16,9 4,5 - - 35 19 52 28 SE 1008,6 25 6 0,0
05.04.2020 12:00:00 15,0 4,3 - - 29 16 - - SE 1009,4 10 6 0,0
05.04.2020 11:00:00 12,7 3,5 - - 22 12 - - SSE 1010,5 10 0 0,0
05.04.2020 10:00:00 12,1 4,1 7,7 7,7 18 10 - - SSE 1011,7 21 54 0,0
05.04.2020 09:00:00 10,0 3,5 - - 15 8 - - SE 1012,4 20 60 0,0
05.04.2020 08:00:00 6,4 2,6 - - 4 2 - - NE 1013,1 18 42 0,0
05.04.2020 07:00:00 4,9 2,1 - - 9 5 - - E 1013,3 10 0 0,0
05.04.2020 06:00:00 3,7 -1,1 - - 2 1 - - W 1013,7 21 0 0,0
05.04.2020 05:00:00 6,1 0,8 - - 8 4 - - E 1014,0 27 0 0,0
05.04.2020 04:00:00 7,3 0,8 - - 18 10 - - E 1014,3 10 0 0,0
05.04.2020 03:00:00 7,8 0,7 - - 11 6 - - SE 1015,2 10 0 0,0
05.04.2020 02:00:00 8,3 1,2 - - 13 7 - - SE 1015,9 10 0 0,0
05.04.2020 01:00:00 8,7 1,9 - - 8 4 - - ESE 1016,4 30 - 0,0
05.04.2020 00:00:00 9,3 1,6 - - 13 7 - - SE 1016,8 10 0 0,0
04.04.2020 23:00:00 9,8 2,2 - - 8 4 - - ESE 1016,7 30 0 0,0
04.04.2020 22:00:00 10,1 3,2 - - 9 5 - - SSE 1016,6 30 0 0,0
04.04.2020 21:00:00 10,8 3,6 - - 8 4 - - SE 1016,7 30 0 0,0
04.04.2020 20:00:00 12,1 3,6 - - 16 9 - - S 1016,2 30 0 0,0
04.04.2020 19:00:00 13,4 4,1 - - 22 12 - - SSE 1016,1 30 36 0,0
04.04.2020 18:00:00 14,1 3,6 - - 26 14 - - S 1015,9 10 24 0,0
04.04.2020 17:00:00 14,0 3,3 - - 35 19 46 25 S 1016,1 30 6 0,0
04.04.2020 16:00:00 13,8 5,4 - - 28 15 - - S 1016,8 26 24 0,0
04.04.2020 15:00:00 12,5 6,4 - - 24 13 - - S 1017,4 22 6 0,0
04.04.2020 14:00:00 11,4 5,7 - - 24 13 - - S 1017,9 22 0 0,0
04.04.2020 13:00:00 10,4 5,3 - - 22 12 - - S 1018,4 10 6 0,0
04.04.2020 12:00:00 8,7 5,0 - - 24 13 - - S 1018,9 20 0 0,0
04.04.2020 11:00:00 9,0 5,1 - - 15 8 - - SSE 1019,0 10 0 0,0
04.04.2020 10:00:00 7,8 5,0 7,4 7,7 9 5 - - SSE 1018,8 10 0 0,0
04.04.2020 09:00:00 5,7 4,6 - - 8 4 - - E 1018,7 26 0 0,0
04.04.2020 08:00:00 4,2 3,5 - - 4 2 - - E 1018,6 21 0 0,0
04.04.2020 07:00:00 2,9 2,5 - - 2 1 - - N 1018,4 10 0 0,0
04.04.2020 06:00:00 1,7 1,1 - - 5 3 - - NE 1018,4 15 0 0,0
04.04.2020 05:00:00 1,7 0,7 - - 4 2 - - ENE 1018,4 24 0 0,0
04.04.2020 04:00:00 2,8 1,9 - - 5 3 - - SSW 1018,8 26 0 0,0
04.04.2020 03:00:00 2,6 1,5 - - 9 5 - - W 1018,9 25 0 0,0
04.04.2020 02:00:00 4,9 2,7 - - 9 5 - - S 1018,7 35 0 0,0
04.04.2020 01:00:00 6,3 3,2 - - 11 6 - - S 1018,6 30 - 0,0
04.04.2020 00:00:00 7,3 3,4 - - 5 3 - - SSW 1018,6 35 0 0,0
03.04.2020 23:00:00 4,5 1,4 - - 8 4 - - SSW 1018,6 30 0 0,0
03.04.2020 22:00:00 5,3 0,1 - - 4 2 - - WSW 1018,5 30 0 0,0
03.04.2020 21:00:00 7,8 2,9 - - 4 2 - - WSW 1018,0 40 0 0,0
03.04.2020 20:00:00 8,4 2,9 - - 11 6 - - WSW 1017,9 40 18 0,0
03.04.2020 19:00:00 9,7 2,9 - - 22 12 - - WSW 1017,6 40 54 0,0
03.04.2020 18:00:00 11,0 3,3 - - 21 11 - - WSW 1017,3 35 48 0,0
03.04.2020 17:00:00 11,5 3,4 - - 28 15 - - WSW 1017,1 10 54 0,0
03.04.2020 16:00:00 12,1 2,9 - - 24 13 - - W 1017,0 10 48 0,0
03.04.2020 15:00:00 11,6 2,7 - - 22 12 - - WSW 1017,2 10 42 0,0
03.04.2020 14:00:00 11,2 3,0 - - 21 11 - - W 1017,3 10 12 0,0
03.04.2020 13:00:00 9,7 1,0 - - 13 7 - - W 1017,6 10 36 0,0
03.04.2020 12:00:00 9,0 1,5 - - 9 5 - - WSW 1017,8 35 24 0,0
03.04.2020 11:00:00 8,2 1,3 - - 11 6 - - W 1017,8 35 6 0,0

tt = temperature
td = dewpoint
tt -20cm = temperature -20cm
tt -100cm = temperature -100cm
ff = wind speed
fx = gusts
dd = wind direction
ppp = reduced air pressure
vv = visibility
sd = sunshine duration
rr = precipitation

Next stations